[TLELIST] Archives

 

[TLELIST] Current TLEs

July 25th 2024 PST

HST 1 20580U 90037B 24206.85799808 .00008294 00000-0 38453-3 0 9991 2 20580 28.4682 92.6446 0002648 82.4421 277.6472 15.18253378682766 ISS (ZARYA) 1 25544U 98067A 24207.39188981 .00018073 00000-0 32052-3 0 9996 2 25544 51.6402 126.0588 0010177 104.8575 1.8008 15.50254702464479 CXO 1 25867U 99040B 24207.53115113 .00000607 00000-0 00000-0 0 9998 2 25867 41.9302 150.5724 8851632 298.6335 0.7499 0.37804841 14708 ...Continue Reading

[TLELIST] Current TLEs

July 25th 2024 PST

HST 1 20580U 90037B 24206.85799808 .00008294 00000-0 38453-3 0 9991 2 20580 28.4682 92.6446 0002648 82.4421 277.6472 15.18253378682766 ISS (ZARYA) 1 25544U 98067A 24207.39188981 .00018073 00000-0 32052-3 0 9996 2 25544 51.6402 126.0588 0010177 104.8575 1.8008 15.50254702464479 CXO 1 25867U 99040B 24207.53115113 .00000607 00000-0 00000-0 0 9998 2 25867 41.9302 150.5724 8851632 298.6335 0.7499 0.37804841 14708 ...Continue Reading

[TLELIST] Current TLEs

July 24th 2024 PST

HST 1 20580U 90037B 24205.87198500 .00009707 00000-0 45174-3 0 9992 2 20580 28.4684 99.2558 0002655 72.5342 287.5541 15.18239695682612 ISS (ZARYA) 1 25544U 98067A 24206.17447642 .00018729 00000-0 33234-3 0 9994 2 25544 51.6396 132.0915 0010235 100.4061 47.5829 15.50212042464287 CXO 1 25867U 99040B 24207.53115113 .00000607 00000-0 00000-0 0 9998 2 25867 41.9302 150.5724 8851632 298.6335 0.7499 0.37804841 14708 ...Continue Reading

[TLELIST] Current TLEs

July 23rd 2024 PST

HST 1 20580U 90037B 24205.14890217 .00009705 00000-0 45184-3 0 9995 2 20580 28.4683 104.1038 0002660 66.4996 293.5876 15.18227112682768 ISS (ZARYA) 1 25544U 98067A 24205.33611388 .00058913 00000-0 10232-2 0 9992 2 25544 51.6404 136.2520 0010179 96.1672 50.0847 15.50207491464158 CXO 1 25867U 99040B 24207.53115113 .00000607 00000-0 00000-0 0 9998 2 25867 41.9302 150.5724 8851632 298.6335 0.7499 0.37804841 14708 ...Continue Reading

[TLELIST] Current TLEs

July 22nd 2024 PST

HST 1 20580U 90037B 24203.17682724 .00008917 00000-0 41485-3 0 9992 2 20580 28.4681 117.3260 0002558 45.7048 314.3754 15.18191033682201 ISS (ZARYA) 1 25544U 98067A 24204.36926792 .00018812 00000-0 33458-3 0 9992 2 25544 51.6379 141.0388 0010232 94.1660 52.9482 15.50143306464004 CXO 1 25867U 99040B 24204.88591692 .00000703 00000-0 00000-0 0 9990 2 25867 41.8763 150.7871 8851548 298.5104 0.5638 0.37802407 14701 ...Continue Reading

[TLELIST] Current TLEs

July 21st 2024 PST

HST 1 20580U 90037B 24203.17682724 .00008917 00000-0 41485-3 0 9992 2 20580 28.4681 117.3260 0002558 45.7048 314.3754 15.18191033682469 ISS (ZARYA) 1 25544U 98067A 24203.33644851 .00018805 00000-0 33493-3 0 9992 2 25544 51.6387 146.1572 0010245 90.3190 49.3943 15.50103729463842 CXO 1 25867U 99040B 24204.88591692 .00000703 00000-0 00000-0 0 9990 2 25867 41.8763 150.7871 8851548 298.5104 0.5638 0.37802407 14701 ...Continue Reading

[TLELIST] Current TLEs

July 21st 2024 PST

HST 1 20580U 90037B 24203.17682724 .00008917 00000-0 41485-3 0 9992 2 20580 28.4681 117.3260 0002558 45.7048 314.3754 15.18191033682469 ISS (ZARYA) 1 25544U 98067A 24203.33644851 .00018805 00000-0 33493-3 0 9992 2 25544 51.6387 146.1572 0010245 90.3190 49.3943 15.50103729463842 CXO 1 25867U 99040B 24204.88591692 .00000703 00000-0 00000-0 0 9990 2 25867 41.8763 150.7871 8851548 298.5104 0.5638 0.37802407 14701 ...Continue Reading

[TLELIST] Current TLEs

July 20th 2024 PST

HST 1 20580U 90037B 24201.92782282 .00008482 00000-0 39443-3 0 9991 2 20580 28.4678 125.6991 0002537 33.2514 326.8238 15.18168117682018 ISS (ZARYA) 1 25544U 98067A 24202.37044098 .00019215 00000-0 34245-3 0 9994 2 25544 51.6388 150.9437 0010346 86.6957 58.8401 15.50068129463698 CXO 1 25867U 99040B 24202.24291878 .00000670 00000-0 00000+0 0 9993 2 25867 41.8191 150.9845 8854733 298.4036 0.6589 0.37805548 25843 ...Continue Reading

[TLELIST] Current TLEs

July 20th 2024 PST

HST 1 20580U 90037B 24201.92782282 .00008482 00000-0 39443-3 0 9991 2 20580 28.4678 125.6991 0002537 33.2514 326.8238 15.18168117682018 ISS (ZARYA) 1 25544U 98067A 24202.37044098 .00019215 00000-0 34245-3 0 9994 2 25544 51.6388 150.9437 0010346 86.6957 58.8401 15.50068129463698 CXO 1 25867U 99040B 24202.24291878 .00000670 00000-0 00000+0 0 9993 2 25867 41.8191 150.9845 8854733 298.4036 0.6589 0.37805548 25843 ...Continue Reading

[TLELIST] Current TLEs

July 20th 2024 PST

HST 1 20580U 90037B 24201.92782282 .00008482 00000-0 39443-3 0 9991 2 20580 28.4678 125.6991 0002537 33.2514 326.8238 15.18168117682018 ISS (ZARYA) 1 25544U 98067A 24202.37044098 .00019215 00000-0 34245-3 0 9994 2 25544 51.6388 150.9437 0010346 86.6957 58.8401 15.50068129463698 CXO 1 25867U 99040B 24202.24291878 .00000670 00000-0 00000+0 0 9993 2 25867 41.8191 150.9845 8854733 298.4036 0.6589 0.37805548 25843 ...Continue Reading
  • This mailing list is a public mailing list - anyone may join or leave, at any time.
  • This mailing list is announce-only.

International Space Station (ISS) / Hubble Space Telescope (HST) / Chandra X-Ray Observatory Orbital Data via EMAIL

Privacy Policy:

Private list